Stations météo

Publicité
Bezier-Vias, France (7638): Température de l'air & dewpoint: 08.11.2018 10:00:00 - 14.11.2018 10:00:00 (CET)Bezier-Vias, France (7638): Vitesse du vent & gusts: 08.11.2018 10:00:00 - 14.11.2018 10:00:00 (CET)Bezier-Vias, France (7638): Direction du vent: 08.11.2018 10:00:00 - 14.11.2018 10:00:00 (CET)Bezier-Vias, France (7638): reduced air pressure: 08.11.2018 10:00:00 - 14.11.2018 10:00:00 (CET)Bezier-Vias, France (7638): visibility: 08.11.2018 10:00:00 - 14.11.2018 10:00:00 (CET)Bezier-Vias, France (7638): Quantités de précipitations: 08.11.2018 10:00:00 - 14.11.2018 10:00:00 (CET)
Date & Time tt [°C] td [°C] ff [km/h] ff [knt] fx [km/h] fx [knt] dd ppp [hPa] vv [km] rr [mm]
14.11.2018 10:00:00 15,5 12,6 16 9 28 15 ENE 1026,6 9 0,0
14.11.2018 09:00:00 14,7 12,0 19 10 29 16 ENE 1026,4 10 0,0
14.11.2018 08:00:00 14,3 11,6 16 9 28 15 ENE 1026,3 13 0,0
14.11.2018 07:00:00 14,5 12,0 18 10 26 14 ENE 1025,9 12 0,0
14.11.2018 06:00:00 14,7 12,6 15 8 22 12 ENE 1026,1 12 0,0
14.11.2018 05:00:00 15,1 12,8 15 8 23 12 ENE 1026,2 12 0,0
14.11.2018 04:00:00 15,2 13,6 12 6 19 10 ENE 1026,5 11 0,0
14.11.2018 03:00:00 15,2 13,9 7 4 11 6 NNE 1026,9 14 0,0
14.11.2018 02:00:00 15,1 14,0 5 3 9 5 NNE 1027,0 13 0,0
14.11.2018 01:00:00 15,3 14,3 4 2 13 7 NE 1027,2 15 0,0
14.11.2018 00:00:00 15,2 14,2 5 3 8 4 NE 1027,5 9 0,0
13.11.2018 23:00:00 15,8 15,0 5 3 14 7 NE 1027,7 9 0,0
13.11.2018 22:00:00 16,0 15,2 7 4 12 7 NNE 1027,9 4,9 0,0
13.11.2018 21:00:00 15,2 14,2 7 4 10 5 N 1027,8 4,1 0,0
13.11.2018 20:00:00 15,7 14,6 5 3 10 5 NE 1027,9 6 0,0
13.11.2018 19:00:00 15,4 14,1 7 4 9 5 NNE 1027,7 8 0,0
13.11.2018 18:00:00 16,3 14,3 4 2 12 7 E 1027,3 11 0,0
13.11.2018 17:00:00 18,4 15,5 6 3 11 6 SE 1026,9 15 0,0
13.11.2018 16:00:00 19,6 15,3 7 4 13 7 SSE 1026,7 17 0,0
13.11.2018 15:00:00 19,5 15,6 8 4 12 6 ESE 1026,7 20 0,0
13.11.2018 14:00:00 19,1 15,0 5 3 15 8 NNW 1026,9 30 0,0
13.11.2018 13:00:00 17,8 14,1 5 3 14 8 W 1027,4 45 0,0
13.11.2018 12:00:00 16,4 13,5 7 4 22 12 W 1027,6 35 0,0
13.11.2018 11:00:00 15,4 13,2 12 6 22 12 W 1027,8 43 0,0
13.11.2018 10:00:00 14,7 12,9 13 7 23 12 W 1027,2 38 0,0
13.11.2018 09:00:00 14,4 12,8 15 8 22 12 W 1026,8 36 0,0
13.11.2018 08:00:00 14,5 12,9 12 7 26 14 W 1026,1 28 0,0
13.11.2018 07:00:00 15,4 13,6 14 8 28 15 SW 1025,3 12 0,0
13.11.2018 06:00:00 17,3 16,2 9 5 18 10 ESE 1024,6 8 0,0
13.11.2018 05:00:00 17,7 16,4 10 5 19 10 SSE 1024,4 9 0,0
13.11.2018 04:00:00 17,8 16,3 9 5 23 12 SE 1024,2 10 0,0
13.11.2018 03:00:00 17,8 16,1 13 7 29 16 ESE 1023,9 11 0,0
13.11.2018 02:00:00 17,8 16,0 16 9 37 20 ESE 1023,5 12 0,0
13.11.2018 01:00:00 17,9 15,9 20 11 41 22 SE 1023,0 14 0,0
13.11.2018 00:00:00 17,7 16,0 17 9 37 20 SE 1022,8 9 0,8
12.11.2018 23:00:00 18,0 16,0 19 10 37 20 SE 1022,8 13 0,2
12.11.2018 22:00:00 18,1 15,9 22 12 40 21 SE 1022,6 13 0,0
12.11.2018 21:00:00 18,1 15,7 21 12 41 22 ESE 1022,1 14 0,0
12.11.2018 20:00:00 18,1 15,5 19 11 43 23 ESE 1021,9 12 0,0
12.11.2018 19:00:00 18,1 15,5 26 14 45 25 SE 1021,6 14 0,0
12.11.2018 18:00:00 18,1 15,7 23 12 44 24 ESE 1021,1 14 0,0
12.11.2018 17:00:00 18,2 15,6 23 13 55 30 ESE 1020,6 14 0,0
12.11.2018 16:00:00 18,3 15,7 26 14 50 27 SE 1020,2 14 0,0
12.11.2018 15:00:00 18,6 15,8 22 12 47 25 SE 1020,3 14 0,0
12.11.2018 14:00:00 18,9 15,6 28 15 50 27 ESE 1020,2 16 0,0
12.11.2018 13:00:00 19,0 15,5 24 13 50 27 SE 1020,2 18 0,0
12.11.2018 12:00:00 19,6 15,9 26 14 55 30 SE 1020,0 16 0,0
12.11.2018 11:00:00 18,8 15,7 29 16 51 27 SE 1020,1 14 0,0
12.11.2018 10:00:00 18,9 15,8 24 13 53 28 SE 1019,5 11 0,0
12.11.2018 09:00:00 18,1 15,4 28 15 48 26 SE 1019,1 14 0,0
12.11.2018 08:00:00 17,9 15,2 24 13 53 29 SE 1018,7 15 0,0
12.11.2018 07:00:00 17,9 14,8 29 15 52 28 SE 1017,5 18 0,0
12.11.2018 06:00:00 18,0 15,3 23 13 45 25 SE 1017,6 17 0,0
12.11.2018 05:00:00 18,0 15,3 24 13 51 28 SSE 1017,0 15 0,0
12.11.2018 04:00:00 17,8 15,4 27 14 63 34 SSE 1016,5 15 0,0
12.11.2018 03:00:00 18,0 15,8 29 16 61 33 SE 1016,3 13 0,0
12.11.2018 02:00:00 17,9 15,9 22 12 68 37 SE 1016,0 13 0,0
12.11.2018 01:00:00 18,0 15,6 27 14 53 29 ESE 1015,9 17 0,0
12.11.2018 00:00:00 17,9 15,3 27 15 51 28 SE 1016,2 19 0,0
11.11.2018 23:00:00 17,9 15,0 26 14 45 25 ESE 1016,2 20 0,0
11.11.2018 22:00:00 17,9 15,2 26 14 50 27 SE 1016,3 19 0,0
11.11.2018 21:00:00 17,9 15,3 24 13 43 23 SE 1015,9 17 0,0
11.11.2018 20:00:00 17,8 15,4 20 11 44 24 SE 1015,2 14 0,0
11.11.2018 19:00:00 17,7 15,5 21 11 43 23 SE 1014,7 12 0,0
11.11.2018 18:00:00 17,8 15,4 16 9 36 19 ESE 1013,7 13 0,0
11.11.2018 17:00:00 18,2 15,4 21 11 36 20 ESE 1013,5 14 0,0
11.11.2018 16:00:00 19,2 15,5 17 9 32 17 ESE 1013,6 51 0,0
11.11.2018 15:00:00 18,8 14,7 20 11 31 17 E 1013,4 27 0,0
11.11.2018 14:00:00 19,3 14,5 22 12 32 18 E 1013,5 51 0,0
11.11.2018 13:00:00 18,7 14,4 20 11 31 17 E 1013,9 37 0,0
11.11.2018 12:00:00 18,1 13,4 18 10 25 13 ENE 1014,0 45 0,0
11.11.2018 11:00:00 17,1 15,1 11 6 22 12 E 1014,1 36 0,0
11.11.2018 10:00:00 14,8 14,2 9 5 16 9 ENE 1013,7 13 0,0
11.11.2018 09:00:00 13,9 13,3 5 3 15 8 E 1013,2 14 0,0
11.11.2018 08:00:00 13,6 12,8 11 6 15 8 NNE 1012,6 17 0,0
11.11.2018 07:00:00 13,8 13,0 10 5 16 8 NNE 1011,9 20 0,0
11.11.2018 06:00:00 13,5 12,7 9 5 16 9 N 1011,4 20 0,0
11.11.2018 05:00:00 12,8 12,0 8 5 13 7 N 1011,6 16 0,0
11.11.2018 04:00:00 13,2 12,4 8 4 18 10 NNE 1011,2 17 0,0
11.11.2018 03:00:00 13,8 13,0 13 7 18 10 N 1011,1 18 0,0
11.11.2018 02:00:00 13,5 12,6 11 6 17 9 N 1011,4 15 0,0
11.11.2018 01:00:00 14,0 13,0 11 6 21 12 NNE 1011,1 14 0,0
11.11.2018 00:00:00 14,5 13,4 14 8 20 11 N 1011,0 13 0,0
10.11.2018 23:00:00 14,6 13,3 15 8 19 10 NNE 1011,0 13 0,0
10.11.2018 22:00:00 15,2 13,4 11 6 17 9 ENE 1010,7 16 0,0
10.11.2018 21:00:00 15,5 13,5 9 5 18 10 ENE 1010,4 18 0,0
10.11.2018 20:00:00 15,4 13,6 12 6 19 10 ENE 1010,4 15 0,0
10.11.2018 19:00:00 14,9 13,1 15 8 19 11 NE 1010,1 18 0,0
10.11.2018 18:00:00 15,3 12,1 9 5 23 12 ENE 1009,7 19 0,0
10.11.2018 17:00:00 17,0 11,5 13 7 28 15 E 1009,2 53 0,0
10.11.2018 16:00:00 17,4 10,7 9 5 35 19 SE 1010,0 48 0,0
10.11.2018 15:00:00 18,6 11,4 23 12 43 23 ESE 1009,5 20 0,0
10.11.2018 14:00:00 17,8 10,7 23 12 43 23 ESE 1009,7 42 0,0
10.11.2018 13:00:00 17,6 10,2 22 12 41 22 SE 1010,6 41 0,0
10.11.2018 12:00:00 17,7 11,3 21 12 37 20 SE 1011,4 57 0,0
10.11.2018 11:00:00 17,2 12,7 16 9 32 17 SE 1012,2 57 0,0
10.11.2018 10:00:00 16,1 12,3 14 8 29 16 SE 1012,1 58 0,0
10.11.2018 09:00:00 13,6 13,0 11 6 23 12 E 1011,5 38 0,0
10.11.2018 08:00:00 12,2 11,6 13 7 20 11 NNE 1012,2 20 0,0
10.11.2018 07:00:00 11,5 10,9 13 7 19 11 NNE 1012,3 19 0,0
10.11.2018 06:00:00 11,2 10,6 14 8 20 11 NNE 1012,0 16 0,0
10.11.2018 05:00:00 8,5 7,7 8 5 11 6 ENE 1012,4 10 0,2
10.11.2018 04:00:00 8,6 7,7 6 3 8 4 ENE 1012,8 3,8 0,0
10.11.2018 03:00:00 9,8 8,9 4 2 5 3 NNE 1013,0 17 0,0
10.11.2018 02:00:00 10,5 9,4 4 2 20 11 ENE 1013,1 27 0,0
10.11.2018 01:00:00 10,4 9,5 10 6 19 10 W 1013,3 19 0,0
10.11.2018 00:00:00 10,5 9,4 9 5 17 9 W 1013,2 43 0,0
09.11.2018 23:00:00 11,7 10,6 5 3 18 10 NNW 1013,5 25 0,0
09.11.2018 22:00:00 11,9 10,8 4 2 23 12 NNW 1013,4 50 0,0
09.11.2018 21:00:00 11,5 10,6 9 5 13 7 NW 1013,3 60 0,0
09.11.2018 20:00:00 10,0 8,9 8 5 10 5 WNW 1013,5 18 0,0
09.11.2018 19:00:00 11,4 10,3 6 4 19 11 NNW 1013,6 59 0,0
09.11.2018 18:00:00 12,0 10,9 15 8 32 17 W 1013,9 60 0,2
09.11.2018 17:00:00 12,6 11,0 16 9 30 16 W 1013,7 15 0,0
09.11.2018 16:00:00 13,0 11,7 19 10 33 18 W 1013,0 57 0,0
09.11.2018 15:00:00 13,5 12,6 14 7 22 12 W 1013,2 46 0,0
09.11.2018 14:00:00 13,4 12,5 10 5 14 8 W 1013,1 17 1,9
09.11.2018 13:00:00 13,0 12,1 6 3 19 10 NNW 1013,4 2,6 4,8
09.11.2018 12:00:00 13,0 12,1 12 6 20 11 N 1013,6 19 3,8
09.11.2018 11:00:00 12,9 12,0 3 2 24 13 W 1014,2 2,9 5,5
09.11.2018 10:00:00 13,0 12,1 15 8 31 17 WNW 1013,4 6 12,2
09.11.2018 09:00:00 12,9 11,8 20 11 42 23 NW 1012,9 3,7 11,5
09.11.2018 08:00:00 14,6 12,6 15 8 42 23 S 1013,0 1,6 7,5
09.11.2018 07:00:00 17,0 14,3 24 13 45 24 SSE 1012,4 13 0,2
09.11.2018 06:00:00 17,5 14,4 17 9 40 22 SSE 1012,5 20 0,0
09.11.2018 05:00:00 17,4 14,1 21 11 42 23 SSE 1012,4 36 0,0
09.11.2018 04:00:00 17,3 14,4 18 10 44 24 S 1012,4 20 0,0
09.11.2018 03:00:00 17,6 13,5 22 12 45 25 SSE 1013,0 39 0,0
09.11.2018 02:00:00 17,5 13,0 26 14 56 30 SSE 1012,8 40 0,0
09.11.2018 01:00:00 17,8 12,7 30 16 55 30 SSE 1012,9 40 0,0
09.11.2018 00:00:00 17,5 13,2 25 14 45 24 SSE 1013,4 40 0,0
08.11.2018 23:00:00 17,6 13,5 23 12 49 26 SSE 1013,8 36 0,0
08.11.2018 22:00:00 17,7 13,8 23 12 55 30 SSE 1014,0 20 0,0
08.11.2018 21:00:00 17,4 14,7 26 14 53 28 SE 1013,9 19 0,0
08.11.2018 20:00:00 17,3 13,8 28 15 53 29 SE 1014,3 38 0,0
08.11.2018 19:00:00 17,2 13,1 24 13 51 28 SE 1014,7 47 0,0
08.11.2018 18:00:00 16,4 12,2 20 11 39 21 SE 1015,3 60 0,0
08.11.2018 17:00:00 16,1 10,8 17 9 30 16 ESE 1015,6 60 0,0
08.11.2018 16:00:00 15,4 10,8 18 10 29 16 E 1016,4 60 0,0
08.11.2018 15:00:00 15,4 10,6 18 10 31 17 E 1017,1 53 0,0
08.11.2018 14:00:00 15,4 10,0 21 11 29 16 E 1017,8 60 0,0
08.11.2018 13:00:00 16,5 7,9 13 7 27 14 ESE 1018,5 49 0,0
08.11.2018 12:00:00 16,3 7,2 17 9 25 14 E 1019,4 53 0,0
08.11.2018 11:00:00 14,5 8,0 6 4 11 6 E 1020,1 59 0,0
08.11.2018 10:00:00 12,4 8,9 6 3 10 6 NE 1020,4 50 0,0

tt = Température de l'air
td = dewpoint
ff = Vitesse du vent
fx = gusts
dd = Direction du vent
ppp = reduced air pressure
vv = visibility
rr = Quantités de précipitations

stations d'obs. à proximité